Actual water levels and discharges of Elbe river

Guaranteed water level and forecast    Ústí nad Labem-Střekov

Guaranteed water level
200 cm
on 28.03.2020 more information
Forecast
195 cm
on 29.03.2020 07:00
Tendency
steady state
on 29.03.2020 metodika tendence
Forecast
(Source data ČHMÚ a Povodí Labe)

Děčín

Date and time (UTC) H (cm) Q (m3/s)
28. 3. 2020 21:00 177 209
28. 3. 2020 20:00 178 211
28. 3. 2020 19:00 178 211
28. 3. 2020 18:00 178 211
28. 3. 2020 17:00 177 209
28. 3. 2020 16:00 176 208
28. 3. 2020 15:00 176 208
28. 3. 2020 14:00 176 208
28. 3. 2020 13:00 177 209
28. 3. 2020 12:00 177 209
28. 3. 2020 11:00 177 209
28. 3. 2020 10:00 177 209
28. 3. 2020 09:00 177 209

H - water level, Q - discharge

Ústí nad Labem

Date and time (UTC) H (cm) Q (m3/s)
28. 3. 2020 20:50 204 198
28. 3. 2020 20:00 203 196
28. 3. 2020 19:00 203 196
28. 3. 2020 18:00 203 196
28. 3. 2020 17:00 204 198
28. 3. 2020 16:00 204 198
28. 3. 2020 15:00 204 198
28. 3. 2020 14:00 206 202
28. 3. 2020 13:00 204 198
28. 3. 2020 12:00 203 196
28. 3. 2020 11:00 203 196
28. 3. 2020 10:00 203 196
28. 3. 2020 09:00 204 198
28. 3. 2020 08:00 204 198

H - water level, Q - discharge
more information

Mělník

Date and time (UTC) H (cm) Q (m3/s)
28. 3. 2020 20:50 265 -
28. 3. 2020 20:00 265 -
28. 3. 2020 19:00 263 -
28. 3. 2020 18:00 263 -
28. 3. 2020 17:00 264 -
28. 3. 2020 16:00 264 -
28. 3. 2020 15:00 264 -
28. 3. 2020 14:00 264 -
28. 3. 2020 13:00 264 -
28. 3. 2020 12:00 266 -
28. 3. 2020 11:00 265 -
28. 3. 2020 10:00 265 -
28. 3. 2020 09:00 264 -
28. 3. 2020 08:00 264 -

H - water level, Q - discharge
more information

Kostelec nad Labem

Date and time (UTC) H (cm) Q (m3/s)
28. 3. 2020 21:00 405 -
28. 3. 2020 20:00 405 -
28. 3. 2020 19:00 406 58
28. 3. 2020 18:00 406 61
28. 3. 2020 17:00 406 63
28. 3. 2020 16:00 406 64
28. 3. 2020 15:00 407 65
28. 3. 2020 14:00 407 65
28. 3. 2020 13:00 407 67
28. 3. 2020 12:00 407 68
28. 3. 2020 11:00 407 66
28. 3. 2020 10:00 408 65
28. 3. 2020 09:00 407 67

H - water level, Q - discharge
more information

Přelouč

Date and time (UTC) H (cm) Q (m3/s)
28. 3. 2020 21:00 85 47
28. 3. 2020 20:00 84 46
28. 3. 2020 19:00 84 46
28. 3. 2020 18:00 86 48
28. 3. 2020 17:00 88 50
28. 3. 2020 16:00 88 50
28. 3. 2020 15:00 86 48
28. 3. 2020 14:00 82 45
28. 3. 2020 13:00 82 45
28. 3. 2020 12:00 83 46
28. 3. 2020 11:00 86 48
28. 3. 2020 10:00 86 48
28. 3. 2020 09:00 86 48

H - water level, Q - discharge
more information

Němčice

Date and time (UTC) H (cm) Q (m3/s)
28. 3. 2020 20:40 122 36
28. 3. 2020 20:00 122 36
28. 3. 2020 19:00 123 36
28. 3. 2020 18:00 123 36
28. 3. 2020 17:00 123 36
28. 3. 2020 16:00 124 37
28. 3. 2020 15:00 124 37
28. 3. 2020 14:00 124 37
28. 3. 2020 13:00 123 36
28. 3. 2020 12:00 123 36
28. 3. 2020 11:00 123 36
28. 3. 2020 10:00 123 36
28. 3. 2020 09:00 122 36
28. 3. 2020 08:00 124 37

H - water level, Q - discharge
Source data
Labe Basin Vltava Basin ČHMÚ